Punta Gorda, FL

3:26 AM EST on December 11, 2019 (GMT -0500)
Charlotte County

Weather History for KPGD - September, 2019

Change the Weather History Date:

Sunday, September 15, 2019

  Actual Average Record
Temperature  
Mean Temperature 83 °F -  
Max Temperature 91 °F 87 °F 93 °F (2007)
Min Temperature 75 °F 71 °F 70 °F (2001)
Cooling Degree Days 18    
Growing Degree Days 33 (Base 50)    
Moisture  
Dew Point 76 °F    
Average Humidity 85    
Maximum Humidity 100    
Minimum Humidity 53    
Precipitation  
Precipitation 0.04 in - - ()
Sea Level Pressure  
Sea Level Pressure 29.95 in    
Wind  
Wind Speed 6 mph (North)    
Max Wind Speed 16 mph    
Max Gust Speed 28 mph    
Visibility 10 miles    
Events Rain , Thunderstorm    
Averages and records for this station are not official NWS values.
T = Trace of Precipitation, MM = Missing Value Source: NWS Daily Summary

Daily Weather History Graph

Daily Weather History Graph

Search for Another Location

Airport or City:

Astronomy

Sep. 15, 2019 Rise Set
Actual Time 7:13 AM EDT 7:32 PM EDT
Civil Twilight 6:50 AM EDT 7:55 PM EDT
Nautical Twilight 6:22 AM EDT 8:23 PM EDT
Astronomical Twilight 5:55 AM EDT 8:50 PM EDT
Moon 8:44 PM EDT (9/15) 8:20 AM EDT (9/15)
Length of Visible Light 13h 05m
Length of Day
12h 19m
Full, 98% of the Moon is Illuminated
Sep 15
Full
Sep 21
Last Quarter
Sep 28
New
Oct 5
First Quarter
Oct 13
Full

Hourly Weather History & Observations

Time (EDT) Temp. Heat Index Dew Point Humidity Pressure Visibility Wind Dir Wind Speed Gust Speed Precip Events Conditions
1:53 AM 77.0 °F - 77.0 °F 100% 29.94 in 10.0 mi East 6.9 mph - N/A   Clear
2:53 AM 77.0 °F - 77.0 °F 100% 29.94 in 10.0 mi ENE 4.6 mph - N/A   Clear
3:53 AM 77.0 °F - 77.0 °F 100% 29.96 in 10.0 mi WSW 3.5 mph - N/A   Clear
4:53 AM 75.9 °F - 75.9 °F 100% 29.94 in 10.0 mi Calm Calm - N/A   Scattered Clouds
5:53 AM 75.9 °F - 75.9 °F 100% 29.95 in 10.0 mi NNW 4.6 mph - N/A   Clear
6:53 AM 75.9 °F - 75.9 °F 100% 29.96 in 10.0 mi North 5.8 mph - N/A   Clear
7:53 AM 77.0 °F - 77.0 °F 100% 29.94 in 10.0 mi NNE 6.9 mph - N/A   Clear
8:53 AM 81.0 °F 87.9 °F 77.0 °F 88% 29.96 in 10.0 mi NNE 9.2 mph - N/A   Clear
9:53 AM 82.9 °F 91.8 °F 77.0 °F 82% 29.98 in 10.0 mi NNE 3.5 mph - N/A   Clear
10:53 AM 84.9 °F 94.1 °F 75.9 °F 74% 29.98 in 10.0 mi NE 4.6 mph - N/A   Partly Cloudy
11:53 AM 87.1 °F 96.3 °F 75.0 °F 67% 29.98 in 10.0 mi Variable 3.5 mph - N/A   Clear
1:53 PM 91.0 °F 98.2 °F 72.0 °F 53% 29.94 in 10.0 mi Variable 5.8 mph - N/A   Scattered Clouds
2:53 PM 90.0 °F 100.2 °F 75.0 °F 61% 29.92 in 10.0 mi SW 11.5 mph - N/A   Scattered Clouds
3:53 PM 90.0 °F 97.9 °F 73.0 °F 57% 29.90 in 10.0 mi WSW 11.5 mph - N/A   Scattered Clouds
4:53 PM 89.1 °F 97.0 °F 73.0 °F 59% 29.90 in 10.0 mi West 11.5 mph - N/A   Partly Cloudy
5:48 PM 87.8 °F 95.6 °F 73.4 °F 62% 29.91 in 10.0 mi West 11.5 mph - N/A Thunderstorm Scattered Clouds
5:53 PM 87.1 °F 95.4 °F 73.9 °F 65% 29.91 in 10.0 mi WSW 12.7 mph - N/A Thunderstorm Scattered Clouds
6:29 PM 79.0 °F - 75.9 °F 90% 29.97 in 8.0 mi NNE 16.1 mph 27.6 mph 0.01 in Rain , Thunderstorm Light Rain
6:53 PM 75.9 °F - 75.0 °F 97% 29.97 in 10.0 mi NE 6.9 mph - 0.04 in Rain , Thunderstorm Light Rain
7:09 PM 77.0 °F - 75.9 °F 96% 29.96 in 10.0 mi Calm Calm - 0.00 in   Mostly Cloudy
8:53 PM 75.9 °F - 75.9 °F 100% 29.95 in 10.0 mi NNW 3.5 mph - N/A   Clear
9:53 PM 77.0 °F - 77.0 °F 100% 29.96 in 10.0 mi NNE 3.5 mph - N/A   Clear
10:53 PM 79.0 °F - 77.0 °F 94% 29.97 in 10.0 mi North 3.5 mph - N/A   Clear
11:53 PM 77.0 °F - 77.0 °F 100% 29.97 in 10.0 mi Calm Calm - N/A   Clear